Columbus, OH

3:18 AM EST on December 10, 2016 (GMT -0500)
Rickenbacker International

Weather History for KLCK - May, 2013

Change the Weather History Date:

Monday, May 27, 2013

  Actual Average Record
Temperature  
Mean Temperature 60 °F -  
Max Temperature 71 °F 73 °F 94 °F (2012)
Min Temperature 50 °F 54 °F 42 °F (1999)
Degree Days  
Heating Degree Days 4    
Growing Degree Days 10 (Base 50)    
Moisture  
Dew Point 44 °F    
Average Humidity 55    
Maximum Humidity 73    
Minimum Humidity 39    
Precipitation  
Precipitation 0.00 in - - ()
Sea Level Pressure  
Sea Level Pressure 30.15 in    
Wind  
Wind Speed 5 mph (East)    
Max Wind Speed 16 mph    
Max Gust Speed 24 mph    
Visibility 10 miles    
Events Rain    
Averages and records for this station are not official NWS values.
T = Trace of Precipitation, MM = Missing Value Source: NWS Daily Summary

Daily Weather History Graph

Daily Weather History Graph

Search for Another Location

Airport or City:

Trip Planner

Search our weather history database for the weather conditions in past years. The results will help you decide how hot, cold, wet, or windy it might be!

Date:

Astronomy

May. 27, 2013 Rise Set
Actual Time 6:07 AM EDT 8:50 PM EDT
Civil Twilight 5:36 AM EDT 9:22 PM EDT
Nautical Twilight 4:56 AM EDT 10:01 PM EDT
Astronomical Twilight 4:11 AM EDT 10:46 PM EDT
Moon 11:28 PM EDT (5/27) 8:43 AM EDT (5/27)
Length of Visible Light 15h 45m
Length of Day
14h 42m
Waning Gibbous, 91% of the Moon is Illuminated
May 27
Waning Gibbous
May 31
Last Quarter
Jun 8
New
Jun 16
First Quarter
Jun 23
Full

Hourly Weather History & Observations

Time (EDT) Temp. Dew Point Humidity Pressure Visibility Wind Dir Wind Speed Gust Speed Precip Events Conditions
12:15 AM 54.1 °F 38.7 °F 56% 30.24 in 10.0 mi Calm Calm - N/A   Clear
12:35 AM 53.8 °F 38.3 °F 56% 30.25 in 10.0 mi Calm Calm - N/A   Clear
12:55 AM 53.8 °F 37.6 °F 54% 30.24 in 10.0 mi NE 3.5 mph - N/A   Clear
1:15 AM 50.9 °F 39.9 °F 66% 30.25 in 10.0 mi NNE 5.8 mph - N/A   Clear
1:35 AM 51.3 °F 40.6 °F 67% 30.25 in 10.0 mi NE 5.8 mph - N/A   Clear
1:55 AM 51.3 °F 41.0 °F 68% 30.24 in 10.0 mi ENE 3.5 mph - N/A   Clear
2:15 AM 51.8 °F 40.8 °F 66% 30.24 in 10.0 mi ENE 5.8 mph - N/A   Clear
2:35 AM 52.3 °F 41.0 °F 65% 30.23 in 10.0 mi ENE 8.1 mph - N/A   Clear
2:55 AM 53.4 °F 40.1 °F 61% 30.22 in 10.0 mi ENE 9.2 mph - N/A   Clear
3:15 AM 54.5 °F 39.0 °F 56% 30.21 in 10.0 mi East 8.1 mph - N/A   Clear
3:35 AM 55.0 °F 38.7 °F 54% 30.21 in 10.0 mi East 5.8 mph - N/A   Clear
3:55 AM 55.4 °F 37.8 °F 52% 30.21 in 10.0 mi ENE 5.8 mph - N/A   Mostly Cloudy
4:15 AM 55.4 °F 37.8 °F 52% 30.21 in 10.0 mi ENE 4.6 mph - N/A   Overcast
4:35 AM 55.4 °F 38.5 °F 53% 30.21 in 10.0 mi East 5.8 mph - N/A   Overcast
4:55 AM 55.6 °F 37.8 °F 51% 30.22 in 10.0 mi East 4.6 mph - N/A   Overcast
5:15 AM 55.6 °F 37.4 °F 50% 30.21 in 10.0 mi East 4.6 mph - N/A   Overcast
5:35 AM 55.6 °F 37.9 °F 52% 30.23 in 10.0 mi Calm Calm - N/A   Overcast
5:55 AM 55.6 °F 38.8 °F 53% 30.23 in 10.0 mi Calm Calm - N/A   Overcast
6:15 AM 55.4 °F 39.9 °F 56% 30.23 in 10.0 mi Calm Calm - N/A Rain Light Rain
6:35 AM 55.6 °F 41.4 °F 59% 30.23 in 10.0 mi Calm Calm - N/A Rain Light Rain
6:55 AM 55.9 °F 40.8 °F 57% 30.24 in 10.0 mi Calm Calm - N/A Rain Rain
7:15 AM 55.8 °F 43.3 °F 63% 30.25 in 10.0 mi Calm Calm - N/A Rain Light Rain
7:35 AM 55.6 °F 42.3 °F 61% 30.25 in 10.0 mi Calm Calm - N/A Rain Rain
7:55 AM 55.4 °F 43.7 °F 65% 30.23 in 10.0 mi East 3.5 mph - N/A   Unknown
8:15 AM 55.6 °F 43.5 °F 64% 30.23 in 10.0 mi Calm Calm - N/A Rain Light Rain
8:35 AM 55.4 °F 43.7 °F 65% 30.24 in 10.0 mi Calm Calm - N/A Rain Light Rain
8:55 AM 55.0 °F 45.5 °F 70% 30.25 in 10.0 mi Calm Calm - N/A Rain Light Rain
9:15 AM 55.0 °F 45.9 °F 71% 30.24 in 10.0 mi Calm Calm - N/A   Overcast
9:35 AM 55.4 °F 45.3 °F 69% 30.24 in 10.0 mi Calm Calm - N/A   Overcast
9:55 AM 55.6 °F 44.8 °F 67% 30.23 in 10.0 mi Calm Calm - N/A Rain Light Rain
10:15 AM 55.8 °F 45.1 °F 67% 30.24 in 10.0 mi SSE 3.5 mph - N/A Rain Light Rain
10:35 AM 54.5 °F 45.7 °F 72% 30.23 in 10.0 mi SE 5.8 mph - N/A Rain Light Rain
10:55 AM 54.1 °F 45.5 °F 73% 30.24 in 10.0 mi Calm Calm - N/A Rain Light Rain
11:15 AM 54.3 °F 45.1 °F 71% 30.24 in 10.0 mi ENE 6.9 mph - N/A Rain Light Rain
11:35 AM 55.0 °F 44.6 °F 68% 30.23 in 10.0 mi East 6.9 mph - N/A   Overcast
11:55 AM 57.7 °F 46.2 °F 65% 30.22 in 10.0 mi East 8.1 mph - N/A   Overcast
12:15 PM 59.9 °F 46.8 °F 62% 30.21 in 10.0 mi East 9.2 mph - N/A   Scattered Clouds
12:35 PM 62.1 °F 46.2 °F 56% 30.21 in 10.0 mi East 13.8 mph 18.4 mph N/A   Mostly Cloudy
12:55 PM 63.9 °F 45.7 °F 52% 30.19 in 10.0 mi East 12.7 mph 21.9 mph N/A   Unknown
1:15 PM 65.3 °F 43.9 °F 46% 30.18 in 10.0 mi East 15.0 mph 20.7 mph N/A   Unknown
1:35 PM 66.4 °F 43.0 °F 43% 30.16 in 10.0 mi ESE 16.1 mph 20.7 mph N/A   Unknown
1:55 PM 66.9 °F 42.6 °F 41% 30.15 in 10.0 mi East 16.1 mph 20.7 mph N/A   Unknown
2:15 PM 68.0 °F 43.0 °F 40% 30.14 in 10.0 mi ESE 12.7 mph 19.6 mph N/A   Clear
2:35 PM 68.2 °F 43.0 °F 40% 30.14 in 10.0 mi ESE 11.5 mph 24.2 mph N/A   Clear
2:55 PM 68.4 °F 43.2 °F 40% 30.13 in 10.0 mi ESE 15.0 mph - N/A   Clear
3:15 PM 69.1 °F 44.4 °F 41% 30.12 in 10.0 mi East 15.0 mph 20.7 mph N/A   Clear
3:35 PM 70.0 °F 44.6 °F 40% 30.12 in 10.0 mi East 11.5 mph 19.6 mph N/A   Clear
3:55 PM 70.3 °F 44.4 °F 39% 30.11 in 10.0 mi East 12.7 mph - N/A   Clear
4:15 PM 70.0 °F 44.4 °F 40% 30.11 in 10.0 mi East 8.1 mph - N/A   Clear
4:35 PM 71.4 °F 46.2 °F 41% 30.09 in 10.0 mi East 10.4 mph - N/A   Clear
4:55 PM 71.6 °F 46.6 °F 41% 30.09 in 10.0 mi SE 9.2 mph - N/A   Unknown
5:15 PM 71.1 °F 47.1 °F 42% 30.08 in 10.0 mi ESE 10.4 mph - N/A   Unknown
5:35 PM 70.5 °F 47.3 °F 44% 30.07 in 10.0 mi ESE 9.2 mph - N/A   Unknown
5:55 PM 70.2 °F 47.8 °F 45% 30.06 in 10.0 mi ESE 11.5 mph - N/A   Unknown
6:15 PM 70.7 °F 48.4 °F 45% 30.04 in 10.0 mi SE 11.5 mph 16.1 mph N/A   Clear
6:35 PM 70.2 °F 48.0 °F 45% 30.03 in 10.0 mi ESE 11.5 mph - N/A   Clear
6:55 PM 69.4 °F 47.8 °F 46% 30.03 in 10.0 mi ESE 10.4 mph 16.1 mph N/A   Clear
7:15 PM 69.1 °F 47.7 °F 46% 30.03 in 10.0 mi East 10.4 mph - N/A   Clear
7:35 PM 68.9 °F 48.2 °F 48% 30.03 in 10.0 mi ESE 8.1 mph - N/A   Clear
7:55 PM 68.9 °F 48.6 °F 48% 30.03 in 10.0 mi East 8.1 mph - N/A   Clear
8:15 PM 68.4 °F 48.6 °F 49% 30.02 in 10.0 mi ESE 8.1 mph - N/A   Clear
8:35 PM 67.6 °F 48.7 °F 51% 30.02 in 10.0 mi ESE 8.1 mph - N/A   Unknown
8:55 PM 67.1 °F 49.1 °F 52% 30.02 in 10.0 mi ESE 5.8 mph - N/A   Unknown
9:15 PM 66.7 °F 49.3 °F 53% 30.02 in 10.0 mi ESE 6.9 mph - N/A   Unknown
9:35 PM 66.7 °F 49.6 °F 54% 30.02 in 10.0 mi ESE 5.8 mph - N/A   Unknown
9:55 PM 66.4 °F 50.0 °F 56% 30.02 in 10.0 mi ESE 8.1 mph - N/A   Scattered Clouds
10:15 PM 66.4 °F 50.2 °F 56% 30.02 in 10.0 mi SE 8.1 mph - N/A   Scattered Clouds
10:35 PM 66.4 °F 50.2 °F 56% 30.02 in 10.0 mi SE 5.8 mph - N/A   Clear
10:55 PM 66.2 °F 50.7 °F 57% 30.02 in 10.0 mi SE 8.1 mph - N/A   Clear
11:15 PM 66.2 °F 50.9 °F 58% 30.02 in 10.0 mi SE 8.1 mph - N/A   Clear
11:35 PM 65.8 °F 51.4 °F 60% 30.01 in 10.0 mi SSE 9.2 mph - N/A   Clear
11:55 PM 65.8 °F 52.0 °F 61% 30.01 in 10.0 mi SSE 5.8 mph - N/A Rain Light Rain